EW4242 Weather Reports


time (UTC)temp
F
wind
direction
speed
knots
gust
knots
rain 1hr
in
rain 24hr
in
rain mn
in
humidity
%
barometer
mb
20260510115246 44 293 4.3 8.7 0.00 0.14 0.00 65 1011.3
20260510114245 44 293 2.6 7.0 0.00 0.14 0.00 67 1011.1
20260510113245 43 315 4.3 10.4 0.00 0.14 0.00 67 1011.0
20260510112516 43 315 3.5 7.0 0.00 0.14 0.00 68 1010.9
20260510112031 0 0.0 0.0 0.00 0.14 0.00
20260510111641 0 0.0 0.0 0.00 0.14 0.00
20260510111246 0 0.0 0.0 0.00 0.14 0.00
20260510110055 0 0.0 0.0 0.00 0.14 0.00
20260510105532 0 0.0 0.0 0.00 0.14 0.00
20260510105140 0 0.0 0.0 0.00 0.14 0.00
20260510104744 0 0.0 0.0 0.00 0.14 0.00
20260510103542 0 0.0 0.0 0.00 0.14 0.00
20260510103021 0 0.0 0.0 0.00 0.14 0.00
20260510102620 0 0.0 0.0 0.00 0.14 0.00
20260510102245 0 0.0 0.0 0.00 0.14 0.00
20260510101020 0 0.0 0.0 0.00 0.14 0.00
20260510100617 41 0.0 0.0 0.00 0.14 0.00 70 1009.3
20260510095744 42 293 2.6 7.8 0.00 0.14 0.00 71 1009.1
20260510094744 42 315 2.6 7.8 0.00 0.14 0.00 70 1008.9
20260510093744 42 315 1.7 6.1 0.00 0.14 0.00 71 1008.8
20260510092805 42 293 1.7 6.1 0.00 0.14 0.00 71 1008.8
20260510091808 42 315 2.6 10.4 0.00 0.14 0.00 70 1008.7
20260510090825 42 315 1.7 4.3 0.00 0.14 0.00 70 1008.5
20260510085747 43 293 2.6 6.1 0.00 0.14 0.00 69 1008.3
20260510084745 43 293 2.6 7.0 0.00 0.14 0.00 69 1008.2
20260510083746 43 315 2.6 7.0 0.00 0.14 0.00 68 1008.0
20260510082746 43 293 1.7 5.2 0.00 0.14 0.00 68 1008.0
20260510081805 44 315 1.7 7.0 0.00 0.14 0.00 68 1008.1
20260510080747 44 293 2.6 10.4 0.00 0.14 0.00 67 1007.9
20260510075746 44 315 1.7 7.8 0.00 0.14 0.00 67 1008.0
20260510074806 45 293 1.7 5.2 0.00 0.14 0.00 66 1007.8
20260510073746 45 315 3.5 7.0 0.00 0.14 0.00 65 1007.7
20260510072747 46 293 2.6 8.7 0.00 0.14 0.00 63 1007.5
20260510071746 46 293 3.5 7.8 0.00 0.14 0.00 62 1007.7
20260510070748 47 315 4.3 11.3 0.00 0.14 0.00 60 1007.5
20260510065806 48 315 3.5 7.0 0.00 0.14 0.00 59 1007.4
20260510064746 48 315 4.3 12.2 0.00 0.14 0.00 58 1007.3
20260510063747 49 293 3.5 9.6 0.00 0.14 0.00 59 1007.3
20260510062747 49 293 2.6 7.0 0.00 0.14 0.00 59 1007.2
20260510061746 49 293 1.7 5.2 0.00 0.14 0.00 60 1007.1
20260510060747 49 315 2.6 6.1 0.00 0.14 0.00 59 1007.1
20260510055746 50 293 1.7 4.3 0.00 0.14 0.00 61 1006.8
20260510054747 50 293 2.6 7.0 0.00 0.14 0.00 61 1006.7
20260510053746 50 293 2.6 7.8 0.00 0.14 0.00 62 1006.6
20260510052747 50 315 2.6 5.2 0.00 0.14 0.00 62 1006.6
20260510051747 50 315 2.6 7.0 0.00 0.14 0.00 62 1006.6
20260510050747 51 315 2.6 4.3 0.00 0.14 0.00 62 1006.8
20260510045746 51 293 2.6 5.2 0.00 0.14 0.00 61 1006.6
20260510044806 51 293 1.7 3.5 0.00 0.14 0.00 60 1006.1
20260510043746 51 315 2.6 6.1 0.00 0.14 0.00 62 1006.2
20260510042747 51 293 1.7 4.3 0.00 0.14 0.00 62 1005.9
20260510041746 51 293 2.6 7.0 0.00 0.14 0.00 63 1005.8
20260510040806 51 315 0.9 3.5 0.00 0.14 0.00 65 1005.7
20260510035746 51 315 1.7 4.3 0.00 0.14 0.14 65 1005.6
20260510034748 51 0 0.9 4.3 0.00 0.14 0.14 66 1005.3
20260510033746 51 0 2.6 7.8 0.00 0.14 0.14 66 1005.2
20260510032746 51 0 1.7 7.0 0.00 0.14 0.14 67 1005.0
20260510031747 52 338 1.7 5.2 0.00 0.14 0.14 68 1004.8
20260510030806 52 338 1.7 5.2 0.00 0.14 0.14 69 1005.0
20260510025746 53 0 3.5 12.2 0.00 0.14 0.14 68 1004.9
20260510024747 53 315 3.5 11.3 0.00 0.14 0.14 73 1004.9
20260510023746 53 293 2.6 7.0 0.00 0.14 0.14 84 1004.9
20260510022747 54 293 2.6 7.0 0.00 0.14 0.14 88 1004.7
20260510021747 53 293 1.7 5.2 0.00 0.14 0.14 89 1004.4
20260510020806 53 293 1.7 5.2 0.00 0.14 0.14 90 1004.2
20260510015747 52 293 0.9 2.6 0.00 0.14 0.14 91 1004.0
20260510014746 52 270 0.9 2.6 0.00 0.14 0.14 92 1003.7
20260510013746 52 0.0 1.7 0.00 0.14 0.14 92 1003.5
20260510012746 51 0.0 0.0 0.00 0.14 0.14 91 1003.1
20260510011747 52 0.0 0.0 0.01 0.14 0.14 91 1003.0
20260510010746 52 0.0 0.0 0.01 0.14 0.14 90 1002.8
20260510005746 52 0.0 0.9 0.01 0.14 0.14 90 1002.5
20260510004747 53 0.0 0.9 0.02 0.14 0.14 89 1002.4
20260510003747 54 270 0.9 3.5 0.02 0.14 0.14 88 1002.1
20260510002807 54 270 1.7 5.2 0.02 0.14 0.14 88 1002.0
20260510001807 54 293 0.9 1.7 0.01 0.13 0.13 88 1002.1
20260510000746 54 0.0 1.7 0.01 0.13 0.13 88 1001.9
20260509235748 54 293 0.9 2.6 0.01 0.13 0.13 87 1001.6
20260509234746 54 293 0.9 3.5 0.00 0.12 0.12 85 1001.5
20260509233807 54 293 1.7 3.5 0.00 0.12 0.12 84 1001.3
20260509232806 54 270 1.7 4.3 0.00 0.12 0.12 83 1001.0
20260509231747 55 270 2.6 7.8 0.00 0.12 0.12 82 1000.7
20260509230747 56 270 2.6 8.7 0.00 0.12 0.12 82 1000.6
20260509225806 56 270 1.7 7.8 0.01 0.12 0.12 82 1000.6
20260509224747 56 270 1.7 6.1 0.08 0.12 0.12 85 1000.6
20260509223746 54 248 1.7 7.0 0.11 0.12 0.12 89 1000.7
20260509222747 54 113 1.7 7.8 0.12 0.12 0.12 88 1000.7
20260509221746 54 270 3.5 13.0 0.12 0.12 0.12 87 1000.5
20260509220746 55 270 4.3 10.4 0.12 0.12 0.12 87 1000.7
20260509215746 56 270 5.2 13.0 0.11 0.11 0.11 85 1000.8
20260509214826 57 248 1.7 5.2 0.04 0.04 0.04 83 1000.9
20260509213745 59 270 1.7 7.0 0.01 0.01 0.01 79 1000.7
20260509212807 59 270 2.6 7.8 0.00 0.00 0.00 75 1001.0
20260509211746 60 135 2.6 10.4 0.00 0.00 0.00 74 1001.1
20260509210746 60 225 3.5 9.6 0.00 0.00 0.00 73 1000.9
20260509205746 59 158 2.6 7.8 0.00 0.00 0.00 74 1000.5
20260509204745 59 135 2.6 7.8 0.00 0.00 0.00 73 1000.5
20260509203806 58 135 2.6 7.0 0.00 0.00 0.00 73 1000.7
20260509202745 58 135 2.6 7.8 0.00 0.00 0.00 74 1001.1
20260509201745 58 135 3.5 9.6 0.00 0.00 0.00 74 1000.8
20260509200745 57 135 2.6 6.1 0.00 0.00 0.00 74 1001.3
20260509195747 57 135 2.6 6.1 0.00 0.00 0.00 74 1001.3
20260509194746 57 135 3.5 7.8 0.00 0.00 0.00 73 1001.3
20260509193745 58 135 1.7 7.0 0.00 0.00 0.00 73 1001.5
20260509192746 59 158 3.5 7.8 0.00 0.00 0.00 71 1001.7
20260509191745 60 158 2.6 7.8 0.00 0.00 0.00 70 1001.8
20260509190747 61 135 3.5 8.7 0.00 0.00 0.00 68 1002.0
20260509185745 62 135 3.5 13.0 0.00 0.00 0.00 68 1002.0
20260509184745 63 135 1.7 10.4 0.00 0.00 0.00 68 1001.9
20260509183745 62 135 3.5 8.7 0.00 0.00 0.00 69 1002.1
20260509182745 62 158 4.3 15.6 0.00 0.00 0.00 69 1002.0
20260509181746 64 135 2.6 8.7 0.00 0.00 0.00 66 1002.1
20260509180746 63 135 3.5 15.6 0.00 0.00 0.00 67 1002.0
20260509175746 63 135 5.2 11.3 0.00 0.00 0.00 66 1002.2
20260509174746 64 158 5.2 13.9 0.00 0.00 0.00 67 1002.4
20260509173746 64 135 2.6 7.8 0.00 0.00 0.00 66 1002.7
20260509172745 64 135 2.6 10.4 0.00 0.00 0.00 68 1002.8
20260509171746 64 158 1.7 4.3 0.00 0.00 0.00 68 1003.1
20260509170746 63 135 1.7 5.2 0.00 0.00 0.00 70 1003.2
20260509165746 62 135 2.6 8.7 0.00 0.00 0.00 70 1003.3
20260509164805 61 135 2.6 6.1 0.00 0.00 0.00 71 1003.3
20260509163746 62 135 2.6 7.8 0.00 0.00 0.00 72 1003.3
20260509162806 61 135 3.5 9.6 0.00 0.00 0.00 73 1003.5
20260509161746 60 270 1.7 5.2 0.00 0.00 0.00 75 1003.7
20260509160745 58 270 2.6 6.1 0.00 0.00 0.00 76 1003.9
20260509155746 58 135 1.7 6.1 0.00 0.00 0.00 79 1004.0
20260509154746 57 135 1.7 6.1 0.00 0.00 0.00 78 1004.2
20260509153746 56 135 1.7 6.1 0.00 0.00 0.00 80 1004.3
20260509152745 55 135 0.9 4.3 0.00 0.00 0.00 83 1004.4
20260509151806 54 113 1.7 4.3 0.00 0.00 0.00 84 1004.5
20260509150745 53 158 1.7 5.2 0.00 0.00 0.00 83 1004.5
20260509145746 53 135 1.7 5.2 0.00 0.00 0.00 82 1004.4
20260509144746 54 135 1.7 6.1 0.00 0.00 0.00 82 1004.6
20260509143746 54 135 2.6 7.8 0.00 0.00 0.00 81 1004.7
20260509142806 54 135 0.9 2.6 0.00 0.00 0.00 81 1004.9
20260509141826 54 135 1.7 4.3 0.00 0.00 0.00 80 1004.8
20260509140806 54 158 1.7 4.3 0.00 0.00 0.00 81 1004.7
20260509135745 54 158 1.7 4.3 0.00 0.00 0.00 79 1004.9
20260509134744 54 135 2.6 5.2 0.00 0.00 0.00 78 1004.9
20260509133747 53 135 1.7 4.3 0.00 0.00 0.00 78 1005.0
20260509132746 53 135 1.7 5.2 0.00 0.00 0.00 76 1005.2
20260509131746 53 135 1.7 4.3 0.00 0.00 0.00 75 1005.2
20260509130745 52 135 2.6 5.2 0.00 0.00 0.00 75 1005.2
20260509125745 52 135 0.9 5.2 0.00 0.00 0.00 75 1005.3
20260509124805 51 135 1.7 5.2 0.00 0.00 0.00 74 1005.4
20260509123745 50 158 0.9 6.1 0.00 0.00 0.00 72 1005.3
20260509122745 48 158 0.9 3.5 0.00 0.00 0.00 73 1005.4
20260509121746 47 135 0.9 3.5 0.00 0.00 0.00 73 1005.3
20260509120825 46 0.0 1.7 0.00 0.00 0.00 75 1005.3